• în România
  • Lista ţărilor
  • Pe 7 zile
  • Temperatura apei
  • Hartă satelitară
  • Meteo pe hartă
  • Widget-uri
  • user-avatar
    Intrare

    Meteo pe oră la Shestakovo

    Astăzi, 23 Septembrie, Duminică

    Timp Temperatura Precipitaţii Vânt Presiune Umiditate
    00:00 +9°C° 0.6 mm 3 m/s 741 mmHg 94%
    01:00 +9°C° 0.6 mm 3 m/s 741 mmHg 94%
    02:00 +9°C° 0 mm 3 m/s 741 mmHg 94%
    03:00 +9°C° 0.2 mm 3 m/s 741 mmHg 94%
    04:00 +9°C° 0.2 mm 3 m/s 741 mmHg 95%
    05:00 +9°C° 0.2 mm 3 m/s 741 mmHg 95%
    06:00 +9°C° 0 mm 3 m/s 741 mmHg 93%
    07:00 +9°C° 0 mm 3 m/s 740 mmHg 92%
    08:00 +9°C° 0 mm 3 m/s 740 mmHg 90%
    09:00 +10°C° 0 mm 4 m/s 740 mmHg 82%
    10:00 +11°C° 0 mm 4 m/s 740 mmHg 75%
    11:00 +13°C° 0 mm 5 m/s 740 mmHg 68%
    12:00 +13°C° 0.2 mm 5 m/s 740 mmHg 66%
    13:00 +13°C° 0.2 mm 5 m/s 740 mmHg 65%
    14:00 +13°C° 0.2 mm 5 m/s 740 mmHg 64%
    15:00 +13°C° 0.3 mm 4 m/s 740 mmHg 69%
    16:00 +12°C° 0.3 mm 3 m/s 740 mmHg 75%
    17:00 +11°C° 0.3 mm 3 m/s 740 mmHg 80%
    18:00 +10°C° 0.1 mm 3 m/s 740 mmHg 84%
    19:00 +9°C° 0.1 mm 2 m/s 740 mmHg 88%
    20:00 +8°C° 0.1 mm 2 m/s 740 mmHg 92%
    21:00 +8°C° 0 mm 2 m/s 740 mmHg 92%
    22:00 +7°C° 0 mm 2 m/s 740 mmHg 93%
    23:00 +7°C° 0 mm 3 m/s 740 mmHg 93%

    Mâine, 24 Septembrie, Luni

    Timp Temperatura Precipitaţii Vânt Presiune Umiditate
    00:00 +7°C° 0 mm 2 m/s 740 mmHg 94%
    01:00 +7°C° 0 mm 2 m/s 739 mmHg 95%
    02:00 +6°C° 0 mm 2 m/s 739 mmHg 96%
    03:00 +6°C° 0 mm 2 m/s 739 mmHg 96%
    04:00 +6°C° 0 mm 2 m/s 739 mmHg 97%
    05:00 +6°C° 0 mm 2 m/s 739 mmHg 98%
    06:00 +7°C° 0.1 mm 2 m/s 738 mmHg 96%
    07:00 +7°C° 0.1 mm 2 m/s 738 mmHg 95%
    08:00 +8°C° 0.1 mm 2 m/s 738 mmHg 93%
    09:00 +8°C° 0.6 mm 2 m/s 737 mmHg 93%
    10:00 +9°C° 0.6 mm 2 m/s 737 mmHg 92%
    11:00 +9°C° 0.6 mm 2 m/s 736 mmHg 91%
    12:00 +9°C° 1.9 mm 3 m/s 736 mmHg 93%
    13:00 +9°C° 1.9 mm 3 m/s 735 mmHg 94%
    14:00 +8°C° 1.9 mm 3 m/s 734 mmHg 95%
    15:00 +8°C° 2.2 mm 3 m/s 733 mmHg 95%
    16:00 +7°C° 2.2 mm 4 m/s 732 mmHg 95%
    17:00 +6°C° 2.2 mm 4 m/s 731 mmHg 95%
    18:00 +6°C° 2 mm 4 m/s 731 mmHg 95%
    19:00 +6°C° 2 mm 5 m/s 731 mmHg 94%
    20:00 +6°C° 2 mm 5 m/s 730 mmHg 94%
    21:00 +5°C° 1.4 mm 6 m/s 730 mmHg 93%
    22:00 +5°C° 1.4 mm 6 m/s 730 mmHg 92%
    23:00 +5°C° 1.4 mm 7 m/s 730 mmHg 91%

    Poimâine, 25 Septembrie, Marţi

    Timp Temperatura Precipitaţii Vânt Presiune Umiditate
    00:00 +5°C° 0.9 mm 7 m/s 731 mmHg 90%
    01:00 +5°C° 0.9 mm 7 m/s 731 mmHg 90%
    02:00 +5°C° 0.9 mm 7 m/s 732 mmHg 89%
    03:00 +5°C° 0.3 mm 7 m/s 733 mmHg 89%
    04:00 +4°C° 0.3 mm 7 m/s 734 mmHg 89%
    05:00 +4°C° 0.3 mm 7 m/s 734 mmHg 88%
    06:00 +4°C° 0.1 mm 7 m/s 735 mmHg 87%
    07:00 +4°C° 0.1 mm 7 m/s 736 mmHg 86%
    08:00 +4°C° 0.1 mm 7 m/s 737 mmHg 85%
    09:00 +4°C° 0.1 mm 6 m/s 738 mmHg 83%
    10:00 +4°C° 0.1 mm 6 m/s 738 mmHg 81%
    11:00 +4°C° 0.1 mm 6 m/s 739 mmHg 79%
    12:00 +5°C° 0 mm 6 m/s 740 mmHg 74%
    13:00 +7°C° 0 mm 6 m/s 741 mmHg 69%
    14:00 +7°C° 0 mm 6 m/s 741 mmHg 65%
    15:00 +7°C° 0 mm 5 m/s 742 mmHg 66%
    16:00 +6°C° 0 mm 5 m/s 743 mmHg 68%
    17:00 +6°C° 0 mm 5 m/s 743 mmHg 69%
    18:00 +5°C° 0 mm 4 m/s 744 mmHg 70%
    19:00 +4°C° 0 mm 4 m/s 745 mmHg 72%
    20:00 +3°C° 0 mm 4 m/s 746 mmHg 73%
    21:00 +3°C° 0 mm 4 m/s 746 mmHg 72%
    22:00 +1°C° 0 mm 4 m/s 747 mmHg 71%
    23:00 +1°C° 0 mm 4 m/s 747 mmHg 71%

    26 Septembrie, Miercuri

    Timp Temperatura Precipitaţii Vânt Presiune Umiditate
    00:00 +1°C° 0 mm 4 m/s 748 mmHg 73%
    01:00 +2°C° 0 mm 3 m/s 749 mmHg 76%
    02:00 +1°C° 0 mm 3 m/s 749 mmHg 78%
    03:00 +1°C° 0 mm 3 m/s 749 mmHg 82%
    04:00 +1°C° 0 mm 3 m/s 750 mmHg 86%
    05:00 +1°C° 0 mm 3 m/s 750 mmHg 91%
    06:00 +2°C° 0 mm 3 m/s 751 mmHg 86%
    07:00 +3°C° 0 mm 3 m/s 751 mmHg 81%
    08:00 +4°C° 0 mm 3 m/s 751 mmHg 76%
    09:00 +5°C° 0 mm 4 m/s 751 mmHg 69%
    10:00 +7°C° 0 mm 4 m/s 751 mmHg 62%
    11:00 +10°C° 0 mm 4 m/s 751 mmHg 55%
    12:00 +9°C° 0 mm 5 m/s 750 mmHg 54%
    13:00 +10°C° 0 mm 5 m/s 750 mmHg 52%
    14:00 +10°C° 0 mm 5 m/s 749 mmHg 51%
    15:00 +10°C° 0 mm 5 m/s 749 mmHg 57%
    16:00 +9°C° 0 mm 5 m/s 748 mmHg 63%
    17:00 +8°C° 0 mm 5 m/s 747 mmHg 70%
    18:00 +8°C° 0.4 mm 5 m/s 746 mmHg 75%
    19:00 +7°C° 0.4 mm 6 m/s 746 mmHg 81%
    20:00 +6°C° 0.4 mm 7 m/s 745 mmHg 86%
    21:00 +5°C° 1.5 mm 7 m/s 744 mmHg 88%
    22:00 +5°C° 1.5 mm 7 m/s 743 mmHg 89%
    23:00 +5°C° 1.5 mm 7 m/s 741 mmHg 90%

    27 Septembrie, Joi

    Timp Temperatura Precipitaţii Vânt Presiune Umiditate
    00:00 +5°C° 2.1 mm 7 m/s 740 mmHg 91%
    01:00 +5°C° 2.1 mm 7 m/s 739 mmHg 91%
    02:00 +5°C° 2.1 mm 7 m/s 738 mmHg 92%
    03:00 +5°C° 1.7 mm 6 m/s 738 mmHg 93%
    04:00 +7°C° 1.7 mm 6 m/s 737 mmHg 93%
    05:00 +7°C° 1.7 mm 5 m/s 737 mmHg 94%
    06:00 +8°C° 1 mm 5 m/s 737 mmHg 94%
    07:00 +8°C° 1 mm 4 m/s 737 mmHg 94%
    08:00 +10°C° 1 mm 4 m/s 737 mmHg 94%
    09:00 +10°C° 0.1 mm 4 m/s 738 mmHg 86%
    10:00 +10°C° 0.1 mm 5 m/s 738 mmHg 79%
    11:00 +12°C° 0.1 mm 5 m/s 738 mmHg 71%
    12:00 +13°C° 0 mm 5 m/s 739 mmHg 65%
    13:00 +13°C° 0 mm 5 m/s 739 mmHg 60%
    14:00 +13°C° 0 mm 5 m/s 739 mmHg 54%
    15:00 +12°C° 0 mm 4 m/s 739 mmHg 59%
    16:00 +11°C° 0 mm 3 m/s 740 mmHg 64%
    17:00 +10°C° 0 mm 2 m/s 740 mmHg 69%
    18:00 +10°C° 0.1 mm 2 m/s 740 mmHg 74%
    19:00 +9°C° 0.1 mm 2 m/s 740 mmHg 79%
    20:00 +9°C° 0.1 mm 2 m/s 740 mmHg 84%
    21:00 +9°C° 0.3 mm 2 m/s 740 mmHg 88%
    22:00 +9°C° 0.3 mm 2 m/s 740 mmHg 91%
    23:00 +10°C° 0.3 mm 1 m/s 740 mmHg 95%

    28 Septembrie, Vineri

    Timp Temperatura Precipitaţii Vânt Presiune Umiditate
    00:00 +10°C° 0.2 mm 1 m/s 740 mmHg 95%
    01:00 +9°C° 0.2 mm 1 m/s 740 mmHg 95%
    02:00 +9°C° 0.2 mm 1 m/s 740 mmHg 95%
    03:00 +9°C° 0.9 mm 2 m/s 739 mmHg 96%
    04:00 +9°C° 0.9 mm 2 m/s 738 mmHg 96%
    05:00 +9°C° 0.9 mm 3 m/s 737 mmHg 96%
    06:00 +10°C° 2.6 mm 4 m/s 736 mmHg 94%
    07:00 +10°C° 2.6 mm 5 m/s 735 mmHg 93%
    08:00 +11°C° 2.6 mm 6 m/s 734 mmHg 91%
    09:00 +10°C° 1.7 mm 6 m/s 734 mmHg 91%
    10:00 +10°C° 1.7 mm 5 m/s 734 mmHg 91%
    11:00 +10°C° 1.7 mm 5 m/s 735 mmHg 91%
    12:00 +9°C° 0.2 mm 5 m/s 736 mmHg 89%
    13:00 +8°C° 0.2 mm 5 m/s 737 mmHg 88%
    14:00 +7°C° 0.2 mm 5 m/s 738 mmHg 86%
    15:00 +7°C° 0 mm 5 m/s 739 mmHg 86%
    16:00 +6°C° 0 mm 4 m/s 740 mmHg 86%
    17:00 +7°C° 0 mm 3 m/s 741 mmHg 86%
    18:00 +6°C° 0 mm 2 m/s 741 mmHg 89%
    19:00 +5°C° 0 mm 2 m/s 742 mmHg 92%
    20:00 +6°C° 0 mm 1 m/s 743 mmHg 96%
    21:00 +5°C° 0 mm 2 m/s 743 mmHg 96%
    22:00 +5°C° 0 mm 2 m/s 743 mmHg 95%
    23:00 +4°C° 0 mm 3 m/s 744 mmHg 95%
    Arată mai mult